[[{"header":{"parameterUnit":"m.s-1","parameterCategory":1,"la1":30.2991,"la2":30.254,"lo1":-89.0895,"lo2":-89.0444,"dy":0.0017,"dx":0.0017,"nx":28,"ny":28,"refTime":"2024-08-18T03:00:00:Z","depth":0,"parameterNumber":2,"parameterNumberName":"U-component_of_WINDS"},"data":[0,0,0,0,0,0,0,0,0,0,0,0,0,0,0,0,0,0,0,0,0,0,0,0,0,0,0,0,0,0,0,0,0,0,0,0,0,0,0,0,0,0,0,0,0,0,0,0,0,0,0,0,0,0,0,0,0,0,3.7316,3.7317,0,3.7396,3.7396,3.7397,3.7361,3.7359,3.7357,3.7355,3.7439,3.7443,3.7447,0,0,0,0,0,0,0,0,0,0,0,0,0,3.7137,3.714,3.7316,3.7317,3.7318,3.7395,3.7396,3.7398,3.7361,3.7359,3.7356,3.7354,3.7437,3.7442,3.7447,0,0,0,0,0,0,0,0,0,0,0,0,0,3.7215,3.7141,3.7316,3.7309,3.7309,3.7395,3.7396,3.7398,3.7362,3.7358,3.7355,3.7353,3.7436,3.7442,3.7448,3.7546,0,0,3.7467,3.7469,0,0,0,0,0,0,0,0,3.7211,3.7222,3.7309,3.731,3.731,3.7365,3.7364,3.7448,3.7362,3.7342,3.7355,3.7351,3.7417,3.7424,3.7446,3.755,3.7554,3.7467,3.7471,3.7474,3.7475,0,0,0,0,0,0,0,3.7205,3.7218,3.7347,3.731,3.7311,3.7303,3.7311,3.738,3.7395,3.7343,3.7341,3.7351,3.7417,3.744,3.7448,3.7555,3.7467,3.7473,3.7476,3.7479,3.7747,3.775,0,0,0,0,0,0,3.72,3.7214,3.7345,3.735,3.7252,3.7309,3.7318,3.735,3.7394,3.7398,3.7353,3.7349,3.7431,3.7441,3.7451,3.757,3.7474,3.7479,3.7483,3.7743,3.7747,3.7751,0,0,0,0,0,0,3.7196,3.7212,3.7342,3.7281,3.7297,3.7315,3.7352,3.7354,3.7377,3.7402,3.7405,3.7374,3.7429,3.7442,3.7523,3.7572,3.7482,3.7488,3.7739,3.7744,3.7749,3.7809,0,0,0,0,0,0,3.7191,3.7211,3.7247,3.7282,3.7301,3.7412,3.7355,3.7357,3.7387,3.7382,3.7422,3.7426,3.7428,3.7514,3.7529,3.7579,3.7493,3.7735,3.7741,3.7748,3.7802,3.7815,3.7826,0,0,0,0,0,3.7185,3.726,3.7249,3.7265,3.7346,3.7414,3.7425,3.7425,3.7391,3.7429,3.7445,3.7425,3.7565,3.7523,3.7539,3.7592,3.7732,3.774,3.7747,3.7797,3.7813,3.7826,0,0,0,0,0,0,3.723,3.7265,3.7252,3.7341,3.7375,3.7408,3.7455,3.7441,3.7486,3.7479,3.7478,3.7487,3.7572,3.759,3.7543,3.7691,3.7643,3.7655,3.7676,3.7691,3.7702,3.7696,3.7498,0,0,0,0,0,3.725,3.7302,3.733,3.7406,3.7424,3.7437,3.7466,3.7464,3.7499,3.7513,3.7535,3.7572,3.7624,3.7658,3.7708,3.7805,3.7815,3.785,3.7862,3.7871,3.7881,3.7937,3.7953,3.7776,3.7776,3.7776,0,0,3.7293,3.7318,3.7351,3.7416,3.7442,3.7497,3.7449,3.7508,3.755,3.7523,3.7601,3.7619,3.7659,3.775,3.7791,3.7767,3.7933,3.7881,3.7889,3.7893,3.7946,3.7963,3.7978,3.7781,3.7781,3.778,0,0,3.7399,3.7422,3.7489,3.7517,3.7557,3.7565,3.7582,3.7618,3.7628,3.7707,3.7688,3.7738,3.7828,3.7858,3.7885,3.8006,3.7989,3.8022,3.8084,3.8138,3.8152,3.8164,3.8209,3.8225,3.8032,3.8032,3.8032,0,3.7447,3.7528,3.7526,3.7588,3.7618,3.7596,3.7665,3.7692,3.7746,3.7768,3.7742,3.7855,3.7881,3.7979,3.8009,3.8031,3.8051,3.8017,3.815,3.8162,3.8174,3.8217,3.8233,3.8036,3.8035,3.8035,3.8035,0,3.7586,3.7642,3.7692,3.7745,3.7781,3.7846,3.7856,3.7893,3.7888,3.79,3.7982,3.8012,3.8068,3.8091,3.8087,3.819,3.8175,3.8149,3.8101,3.8195,3.8235,3.8251,3.8041,3.804,3.8039,3.8038,0,0,3.772,3.7773,3.7792,3.7817,3.7861,3.7905,3.7971,3.8025,3.8058,3.8097,3.8153,3.8231,3.8208,3.8239,3.8238,3.8286,3.8382,3.8255,3.8256,3.8278,3.85,3.8519,3.8538,3.8371,3.8374,3.8377,3.8497,0,3.783,3.7943,3.7945,3.805,3.8104,3.8085,3.8143,3.8177,3.8191,3.824,3.8256,3.8311,3.8276,3.8295,3.8341,3.836,3.8426,3.8352,3.8425,3.8428,3.8416,3.8558,3.8578,3.869,3.8512,3.8515,3.8517,0,3.7973,3.8017,3.8127,3.8166,3.8188,3.8239,3.8291,3.8338,3.8377,3.8384,3.842,3.8413,3.8482,3.8432,3.8529,3.8478,3.8508,3.8523,3.8527,3.8534,3.8478,3.857,3.8726,3.8743,3.8541,3.8539,3.8538,0,3.8062,3.8149,3.8226,3.8248,3.8295,3.8332,3.8353,3.8389,3.8423,3.8469,3.8491,3.8545,3.8574,3.8617,3.8625,3.8588,3.8722,3.8673,3.8731,3.8731,3.876,3.8758,3.8923,3.8779,3.8779,3.8779,3.8778,0,3.8184,3.8253,3.8267,3.8315,3.8392,3.8395,3.8472,3.849,3.8524,3.8576,3.8564,3.8614,3.8621,3.8674,3.8681,3.8761,3.8774,3.8783,3.8784,3.8784,3.8784,3.8804,3.8797,3.8783,3.8782,3.8781,3.878,0,3.8296,3.8308,3.8392,3.843,3.8441,3.8497,3.853,3.8577,3.859,3.8657,3.8673,3.8695,3.8756,3.8769,3.8841,3.8846,3.8942,3.8935,3.8928,3.8928,3.8986,3.8981,3.9171,3.9197,3.9035,3.9036,3.9038,0,3.8373,3.8426,3.847,3.8504,3.8527,3.8582,3.8617,3.8622,3.8659,3.871,3.8752,3.8812,3.886,3.8959,3.8982,3.9039,3.9034,3.9097,3.9042,3.9041,3.9036,3.9033,3.9039,3.9107,3.9109,3.911,3.9111,0,3.851,3.8514,3.8564,3.8617,3.8659,3.8701,3.8741,3.877,3.8782,3.8824,3.8887,3.8924,3.8999,3.906,3.9117,3.914,3.9129,3.9128,3.9145,3.9146,3.9141,3.9146,3.8957,3.9124,3.9123,3.9122,3.9121,3.912,3.8608,3.8655,3.8694,3.875,3.8781,3.882,3.8866,3.8886,3.8938,3.8999,3.9,3.9069,3.911,3.9185,3.9213,3.9268,3.9248,3.9272,3.9278,3.9285,3.9291,3.9132,3.9278,3.9278,3.9278,3.9277,3.9277,0,3.8745,3.877,3.8822,3.8879,3.8925,3.8909,3.8954,3.8993,3.9054,3.9093,3.9141,3.9214,3.9274,3.9302,3.9362,3.9401,3.9397,3.9416,3.9413,3.942,3.9304,3.9284,3.9418,3.9418,3.9418,3.9418,3.9418,3.9418,3.8822,3.8901,3.891,3.9005,3.903,3.9097,3.9124,3.916,3.9191,3.9274,3.9323,3.9341,3.9377,3.9439,3.9494,3.9501,3.9524,3.9546,3.955,3.9442,3.9427,3.9414,3.9395,3.955,3.9551,3.9662,3.9663,3.9663]},{"header":{"parameterUnit":"m.s-1","parameterCategory":1,"la1":30.2991,"la2":30.254,"lo1":-89.0895,"lo2":-89.0444,"dy":0.0017,"dx":0.0017,"nx":28,"ny":28,"refTime":"2024-08-18T03:00:00:Z","depth":0,"parameterNumber":3,"parameterNumberName":"V-component_of_WINDS"},"data":[0,0,0,0,0,0,0,0,0,0,0,0,0,0,0,0,0,0,0,0,0,0,0,0,0,0,0,0,0,0,0,0,0,0,0,0,0,0,0,0,0,0,0,0,0,0,0,0,0,0,0,0,0,0,0,0,0,0,-2.5894,-2.5894,0,-2.5926,-2.5926,-2.5927,-2.5929,-2.5928,-2.5928,-2.5928,-2.5959,-2.596,-2.5961,0,0,0,0,0,0,0,0,0,0,0,0,0,-2.5833,-2.5834,-2.5894,-2.5894,-2.5895,-2.5926,-2.5926,-2.5927,-2.5929,-2.5928,-2.5928,-2.5928,-2.5958,-2.596,-2.5961,0,0,0,0,0,0,0,0,0,0,0,0,0,-2.5862,-2.5835,-2.5894,-2.5899,-2.59,-2.5926,-2.5926,-2.5927,-2.5929,-2.5928,-2.5928,-2.5927,-2.5958,-2.596,-2.5961,-2.5983,0,0,-2.5967,-2.5967,0,0,0,0,0,0,0,0,-2.586,-2.5864,-2.5898,-2.5899,-2.59,-2.5923,-2.5916,-2.5946,-2.5929,-2.5918,-2.5928,-2.5927,-2.5947,-2.595,-2.5957,-2.5984,-2.5986,-2.5967,-2.5968,-2.5969,-2.5969,0,0,0,0,0,0,0,-2.5858,-2.5863,-2.5906,-2.5899,-2.59,-2.59,-2.5904,-2.5922,-2.5935,-2.5919,-2.5919,-2.5923,-2.5948,-2.5955,-2.5958,-2.5986,-2.5967,-2.5968,-2.5969,-2.597,-2.6034,-2.6035,0,0,0,0,0,0,-2.5855,-2.5861,-2.5905,-2.5907,-2.5878,-2.5902,-2.5906,-2.5916,-2.5935,-2.5937,-2.5923,-2.5923,-2.5953,-2.5956,-2.5959,-2.5986,-2.5969,-2.597,-2.5971,-2.6033,-2.6034,-2.6035,0,0,0,0,0,0,-2.5854,-2.5859,-2.5904,-2.5884,-2.589,-2.5903,-2.5915,-2.5917,-2.5925,-2.5938,-2.5941,-2.5929,-2.5952,-2.5956,-2.5977,-2.5987,-2.5971,-2.5973,-2.6033,-2.6034,-2.6035,-2.604,0,0,0,0,0,0,-2.5852,-2.5859,-2.5867,-2.5885,-2.5891,-2.5922,-2.5916,-2.5918,-2.5928,-2.5928,-2.5944,-2.5946,-2.5952,-2.5975,-2.5979,-2.5989,-2.5974,-2.6032,-2.6033,-2.6034,-2.6039,-2.6041,-2.6043,0,0,0,0,0,-2.585,-2.5867,-2.5868,-2.5873,-2.5902,-2.5923,-2.5927,-2.5933,-2.5929,-2.5937,-2.5946,-2.5946,-2.5985,-2.5977,-2.5982,-2.5992,-2.6031,-2.6033,-2.6034,-2.6038,-2.6041,-2.6043,0,0,0,0,0,0,-2.5849,-2.5869,-2.587,-2.5893,-2.5906,-2.5923,-2.5934,-2.5936,-2.595,-2.5949,-2.5957,-2.596,-2.5981,-2.5989,-2.5979,-2.6015,-2.6008,-2.601,-2.6009,-2.6012,-2.6013,-2.6011,-2.5975,0,0,0,0,0,-2.5852,-2.5867,-2.5884,-2.5902,-2.5909,-2.5921,-2.593,-2.5934,-2.5948,-2.5953,-2.5964,-2.5977,-2.5993,-2.6002,-2.6017,-2.604,-2.6044,-2.605,-2.6052,-2.6054,-2.6056,-2.6069,-2.6072,-2.604,-2.604,-2.604,0,0,-2.5857,-2.587,-2.5879,-2.5903,-2.5913,-2.593,-2.5925,-2.5942,-2.5954,-2.5956,-2.5977,-2.5985,-2.6,-2.6022,-2.6033,-2.6029,-2.6066,-2.6056,-2.6057,-2.6058,-2.6071,-2.6074,-2.6077,-2.6041,-2.6041,-2.604,0,0,-2.5874,-2.5886,-2.5903,-2.5914,-2.5931,-2.5939,-2.5943,-2.596,-2.5966,-2.5987,-2.599,-2.6004,-2.603,-2.6041,-2.605,-2.6074,-2.6074,-2.6078,-2.6088,-2.6101,-2.6104,-2.6106,-2.6115,-2.6118,-2.608,-2.608,-2.608,0,-2.5878,-2.5903,-2.5911,-2.5929,-2.5939,-2.5943,-2.596,-2.5971,-2.5992,-2.5999,-2.5995,-2.6029,-2.6039,-2.6065,-2.6071,-2.6078,-2.6083,-2.6076,-2.6103,-2.6106,-2.6108,-2.6116,-2.612,-2.6081,-2.6081,-2.6081,-2.6081,0,-2.5908,-2.5925,-2.5937,-2.5958,-2.597,-2.5987,-2.5998,-2.6009,-2.6013,-2.6021,-2.6043,-2.6056,-2.6074,-2.608,-2.6083,-2.6106,-2.6104,-2.6102,-2.6094,-2.6111,-2.612,-2.6123,-2.6082,-2.6081,-2.6081,-2.6081,0,0,-2.5924,-2.5951,-2.5955,-2.5966,-2.5985,-2.5999,-2.6016,-2.6035,-2.6045,-2.6059,-2.6074,-2.6097,-2.6096,-2.6106,-2.6111,-2.6122,-2.6141,-2.6119,-2.6119,-2.6123,-2.6168,-2.617,-2.6174,-2.6142,-2.6143,-2.6143,-2.6167,0,-2.5944,-2.5977,-2.5986,-2.6013,-2.6029,-2.6034,-2.6049,-2.6063,-2.6072,-2.6087,-2.6096,-2.6112,-2.6109,-2.6115,-2.6127,-2.6137,-2.6151,-2.6135,-2.6156,-2.6157,-2.6152,-2.6178,-2.618,-2.6202,-2.6171,-2.6171,-2.6172,0,-2.5972,-2.5988,-2.6018,-2.6037,-2.6044,-2.6058,-2.6077,-2.6091,-2.6107,-2.6112,-2.6125,-2.6129,-2.6147,-2.614,-2.6166,-2.6155,-2.6165,-2.6171,-2.6172,-2.6174,-2.6165,-2.6181,-2.6209,-2.6213,-2.6177,-2.6176,-2.6176,0,-2.5982,-2.6011,-2.6033,-2.6042,-2.6064,-2.6074,-2.6084,-2.6099,-2.611,-2.6126,-2.6134,-2.6152,-2.6161,-2.6175,-2.6184,-2.6177,-2.621,-2.6202,-2.6215,-2.6214,-2.6221,-2.622,-2.6251,-2.6227,-2.6227,-2.6227,-2.6226,0,-2.6004,-2.6022,-2.6038,-2.6051,-2.6072,-2.6082,-2.6102,-2.6111,-2.6126,-2.6141,-2.6146,-2.616,-2.617,-2.6186,-2.6193,-2.6214,-2.6218,-2.6223,-2.6225,-2.6223,-2.6223,-2.6229,-2.6228,-2.6227,-2.6227,-2.6227,-2.6227,0,-2.6018,-2.603,-2.6054,-2.6074,-2.6079,-2.6094,-2.6111,-2.6124,-2.6133,-2.6152,-2.6157,-2.6172,-2.6191,-2.6201,-2.6224,-2.6229,-2.6253,-2.6253,-2.6248,-2.6248,-2.626,-2.6259,-2.6296,-2.6302,-2.6274,-2.6274,-2.6274,0,-2.6031,-2.6045,-2.6067,-2.6078,-2.6089,-2.6106,-2.6118,-2.6128,-2.6141,-2.6161,-2.6172,-2.6191,-2.6207,-2.6237,-2.6249,-2.6268,-2.6269,-2.6281,-2.6272,-2.627,-2.627,-2.6269,-2.6271,-2.6282,-2.6283,-2.6283,-2.6283,0,-2.6053,-2.6059,-2.6076,-2.6096,-2.611,-2.6126,-2.6141,-2.615,-2.6163,-2.6177,-2.6197,-2.6209,-2.6234,-2.6253,-2.6273,-2.6283,-2.6285,-2.6286,-2.629,-2.6288,-2.6284,-2.6287,-2.6252,-2.6285,-2.6285,-2.6284,-2.6284,-2.6284,-2.6068,-2.6081,-2.6099,-2.6118,-2.6132,-2.6146,-2.616,-2.6172,-2.6189,-2.621,-2.6215,-2.6237,-2.6253,-2.628,-2.6291,-2.6307,-2.6305,-2.631,-2.6312,-2.6313,-2.6314,-2.6282,-2.6311,-2.6311,-2.6311,-2.6311,-2.6311,0,-2.6091,-2.6103,-2.6121,-2.6143,-2.6158,-2.6161,-2.6178,-2.6191,-2.621,-2.6226,-2.6242,-2.6265,-2.6285,-2.6299,-2.6319,-2.6329,-2.6331,-2.6334,-2.6334,-2.6336,-2.6315,-2.6309,-2.6333,-2.6333,-2.6333,-2.6333,-2.6333,-2.6333,-2.6104,-2.6127,-2.6135,-2.6165,-2.6177,-2.6199,-2.6209,-2.6222,-2.6235,-2.6262,-2.6278,-2.6288,-2.6303,-2.6324,-2.6342,-2.6346,-2.6353,-2.6356,-2.636,-2.634,-2.6337,-2.6335,-2.633,-2.6357,-2.6357,-2.638,-2.638,-2.638]}]]